International Skating Union - Official Site

Essent ISU World Cup Calgary
November 8-10, 2013

Draw | Lap Times | Index | World Cup

Referee: Daniel  CABELDUC  (SWE)
Starter: Bruce  LANSER  (USA)
StartTime: EndTime: Air Temp: Ice Temp: Humidity:
13:54 14:24 17.3 ℃ -7.5 ℃ 29
Result Team Pursuit Ladies
Rankings as of Nov 10 2013 7:25PM
Rank: No.: Team: Nation: Time: Behind: Points:
Total 12
1 1 Netherlands (90) Ireen Wüst (86) Lotte van Beek (80) Linda de Vries NED NED 2:57.820.5 - 18.58 - (18.5)
1.0 - 32.54 - (13.9)
1.5 - 46.52 - (13.9)
2.0 - 1:00.72 - (14.1)
2.5 - 1:15.00 - (14.2)
3.0 - 1:29.40 - (14.4)
3.5 - 1:44.10 - (14.6)
4.0 - 1:58.68 - (14.5)
4.5 - 2:13.46 - (14.7)
5.0 - 2:28.13 - (14.6)
5.5 - 2:42.99 - (14.8)
6.0 - 2:57.82 - (14.8)
100
2 6 Japan (61) Nana Takagi (59) Maki Tabata (54) Ayaka Kikuchi JPN JPN 2:58.530.5 - 18.76 - (18.7)
1.0 - 32.84 - (14.0)
1.5 - 46.92 - (14.0)
2.0 - 1:00.87 - (13.9)
2.5 - 1:14.98 - (14.1)
3.0 - 1:29.25 - (14.2)
3.5 - 1:43.81 - (14.5)
4.0 - 1:58.57 - (14.7)
4.5 - 2:13.60 - (15.0)
5.0 - 2:28.47 - (14.8)
5.5 - 2:43.47 - (15.0)
6.0 - 2:58.53 - (15.0)
0.71 80
3 3 Poland (95) Katarzyna Bachleda-Curus (99) Luiza Zlotkowska (98) Katarzyna Wozniak POL POL 2:59.420.5 - 19.13 - (19.1)
1.0 - 33.61 - (14.4)
1.5 - 47.97 - (14.3)
2.0 - 1:02.48 - (14.5)
2.5 - 1:16.96 - (14.4)
3.0 - 1:31.50 - (14.5)
3.5 - 1:46.20 - (14.7)
4.0 - 2:00.59 - (14.3)
4.5 - 2:15.03 - (14.4)
5.0 - 2:29.85 - (14.8)
5.5 - 2:44.64 - (14.7)
6.0 - 2:59.42 - (14.7)
1.60 70
4 2 Canada (8) Kali Christ (7) Ivanie Blondin (16) Brittany Schussler CAN CAN 2:59.840.5 - 19.30 - (19.3)
1.0 - 33.69 - (14.3)
1.5 - 47.95 - (14.2)
2.0 - 1:02.11 - (14.1)
2.5 - 1:16.62 - (14.5)
3.0 - 1:30.81 - (14.1)
3.5 - 1:45.33 - (14.5)
4.0 - 1:59.92 - (14.5)
4.5 - 2:14.82 - (14.8)
5.0 - 2:29.78 - (14.9)
5.5 - 2:44.93 - (15.1)
6.0 - 2:59.84 - (14.9)
2.02 60
5 5 Korea (69) Bo-Reum Kim (73) Seon-Yeong Noh (76) Shin Young Yang KOR KOR 3:00.320.5 - 19.79 - (19.7)
1.0 - 34.16 - (14.3)
1.5 - 48.17 - (14.0)
2.0 - 1:02.10 - (13.9)
2.5 - 1:16.56 - (14.4)
3.0 - 1:31.20 - (14.6)
3.5 - 1:45.67 - (14.4)
4.0 - 2:00.32 - (14.6)
4.5 - 2:15.31 - (14.9)
5.0 - 2:30.40 - (15.0)
5.5 - 2:45.58 - (15.1)
6.0 - 3:00.32 - (14.7)
2.50 50
6 8 Russia (107) Yekaterina Lobysheva (105) Olga Graf (110) Yuliya Skokova RUS RUS 3:00.440.5 - 18.97 - (18.9)
1.0 - 33.25 - (14.2)
1.5 - 47.57 - (14.3)
2.0 - 1:02.11 - (14.5)
2.5 - 1:16.82 - (14.7)
3.0 - 1:31.55 - (14.7)
3.5 - 1:46.35 - (14.7)
4.0 - 2:01.17 - (14.8)
4.5 - 2:15.90 - (14.7)
5.0 - 2:30.67 - (14.7)
5.5 - 2:45.57 - (14.9)
6.0 - 3:00.44 - (14.8)
2.62 45
7 7 Norway (94) Ida Njåtun (93) Mari Hemmer (91) Hege Bøkko NOR NOR 3:00.970.5 - 19.47 - (19.4)
1.0 - 33.94 - (14.4)
1.5 - 48.23 - (14.2)
2.0 - 1:02.73 - (14.5)
2.5 - 1:17.19 - (14.4)
3.0 - 1:31.95 - (14.7)
3.5 - 1:46.58 - (14.6)
4.0 - 2:01.15 - (14.5)
4.5 - 2:16.11 - (14.9)
5.0 - 2:30.93 - (14.8)
5.5 - 2:45.94 - (15.0)
6.0 - 3:00.97 - (15.0)
3.15 40
8 10 USA (116) Brittany Bowe (122) Heather Richardson (124) Jilleanne Rookard USA USA 3:00.980.5 - 18.97 - (18.9)
1.0 - 33.03 - (14.0)
1.5 - 47.20 - (14.1)
2.0 - 1:01.37 - (14.1)
2.5 - 1:15.80 - (14.4)
3.0 - 1:30.14 - (14.3)
3.5 - 1:44.88 - (14.7)
4.0 - 1:59.80 - (14.9)
4.5 - 2:15.09 - (15.2)
5.0 - 2:30.40 - (15.3)
5.5 - 2:45.83 - (15.4)
6.0 - 3:00.98 - (15.1)
3.16 35
9 11 China (28) Xin Zhao (22) Jing Liu (21) Qishi Li CHN CHN 3:03.110.5 - 18.81 - (18.8)
1.0 - 33.37 - (14.5)
1.5 - 47.82 - (14.4)
2.0 - 1:02.57 - (14.7)
2.5 - 1:17.48 - (14.9)
3.0 - 1:32.67 - (15.1)
3.5 - 1:47.61 - (14.9)
4.0 - 2:02.68 - (15.0)
4.5 - 2:17.82 - (15.1)
5.0 - 2:33.06 - (15.2)
5.5 - 2:48.08 - (15.0)
6.0 - 3:03.11 - (15.0)
5.29 30
10 9 Italy (47) Francesca Bettrone (50) Paola Simionato (49) Francesca Lollobrigida ITA ITA 3:03.230.5 - 19.12 - (19.1)
1.0 - 33.55 - (14.4)
1.5 - 47.76 - (14.2)
2.0 - 1:02.43 - (14.6)
2.5 - 1:17.52 - (15.0)
3.0 - 1:32.47 - (14.9)
3.5 - 1:47.58 - (15.1)
4.0 - 2:02.61 - (15.0)
4.5 - 2:17.88 - (15.2)
5.0 - 2:33.21 - (15.3)
5.5 - 2:48.27 - (15.0)
6.0 - 3:03.23 - (14.9)
5.41 25
11 4 Germany (42) Claudia Pechstein (40) Bente Kraus (35) Monique Angermüller GER GER 3:03.320.5 - 18.91 - (18.9)
1.0 - 32.85 - (13.9)
1.5 - 46.78 - (13.9)
2.0 - 1:00.97 - (14.1)
2.5 - 1:15.47 - (14.5)
3.0 - 1:30.09 - (14.6)
3.5 - 1:44.83 - (14.7)
4.0 - 2:00.09 - (15.2)
4.5 - 2:15.76 - (15.6)
5.0 - 2:31.17 - (15.4)
5.5 - 2:46.81 - (15.6)
6.0 - 3:03.32 - (16.5)
5.50 21
12 13 Czech Republic (29) Karolina Erbanová (30) Martina Sábliková (31) Nikola Zdráhalova CZE CZE 3:05.790.5 - 20.01 - (20.0)
1.0 - 35.32 - (15.3)
1.5 - 50.41 - (15.0)
2.0 - 1:05.36 - (14.9)
2.5 - 1:20.29 - (14.9)
3.0 - 1:35.22 - (14.9)
3.5 - 1:50.21 - (14.9)
4.0 - 2:05.18 - (14.9)
4.5 - 2:20.21 - (15.0)
5.0 - 2:35.31 - (15.0)
5.5 - 2:50.66 - (15.3)
6.0 - 3:05.79 - (15.1)
7.97 18